QPF
0.01 0.02 0.02 0.02 0.02 0.01 0.01 0.03 0.03 0.04 0.04 0.04 0.05 0.05 0.06 0.04 0.03 0.02 0.02 0.04 0.04 0.04 0.05 0.05 0.07 0.06 0.09 0.09 0.07 0.11 0.15 0.15 0.16 0.18 0.16 0.12 0.09 0.10 0.09 0.07 0.05 0.04 0.04
0.00 0.02 0.02 0.02 0.02 0.02 0.03 0.04 0.04 0.05 0.04 0.04 0.04 0.04 0.04 0.03 0.03 0.02 0.03 0.04 0.03 0.02 0.04 0.07 0.07 0.08 0.09 0.11 0.11 0.12 0.11 0.10 0.14 0.21 0.20 0.16 0.13 0.12 0.09 0.09 0.08 0.06 0.06
0.00 0.00 0.01 0.01 0.02 0.03 0.06 0.09 0.06 0.05 0.04 0.04 0.03 0.03 0.03 0.02 0.02 0.03 0.04 0.03 0.02 0.02 0.03 0.03 0.04 0.06 0.07 0.10 0.11 0.10 0.11 0.11 0.12 0.16 0.21 0.21 0.17 0.15 0.14 0.14 0.11 0.08 0.08
0.01 0.00 0.00 0.01 0.02 0.04 0.06 0.06 0.05 0.04 0.03 0.02 0.02 0.02 0.03 0.03 0.04 0.03 0.03 0.02 0.02 0.01 0.02 0.03 0.04 0.05 0.05 0.09 0.07 0.09 0.12 0.14 0.14 0.13 0.15 0.18 0.17 0.15 0.14 0.14 0.14 0.14 0.09
0.01 0.01 0.00 0.01 0.01 0.03 0.02 0.03 0.06 0.04 0.03 0.02 0.02 0.03 0.03 0.04 0.03 0.03 0.04 0.04 0.04 0.02 0.02 0.05 0.06 0.07 0.07 0.08 0.07 0.10 0.10 0.12 0.16 0.15 0.17 0.19 0.18 0.18 0.16 0.17 0.17 0.17 0.09
0.01 0.01 0.00 0.00 0.01 0.01 0.00 0.01 0.03 0.02 0.02 0.02 0.02 0.03 0.04 0.04 0.04 0.04 0.05 0.04 0.04 0.03 0.03 0.04 0.07 0.07 0.08 0.07 0.06 0.07 0.08 0.11 0.16 0.14 0.13 0.15 0.16 0.16 0.17 0.18 0.20 0.18 0.13
0.01 0.01 0.00 0.00 0.00 0.00 0.00 0.00 0.01 0.01 0.01 0.01 0.02 0.03 0.04 0.05 0.05 0.03 0.04 0.04 0.04 0.04 0.03 0.04 0.06 0.06 0.06 0.07 0.07 0.07 0.08 0.08 0.08 0.08 0.10 0.12 0.10 0.11 0.12 0.14 0.16 0.17 0.13
0.00 0.01 0.01 0.00 0.01 0.00 0.00 0.00 0.01 0.01 0.01 0.01 0.02 0.03 0.04 0.04 0.05 0.05 0.04 0.04 0.03 0.04 0.03 0.03 0.04 0.04 0.06 0.06 0.07 0.07 0.07 0.07 0.06 0.06 0.09 0.10 0.10 0.10 0.11 0.11 0.13 0.14 0.14
0.00 0.00 0.01 0.01 0.01 0.00 0.00 0.00 0.01 0.01 0.01 0.01 0.01 0.02 0.02 0.03 0.04 0.05 0.05 0.04 0.03 0.03 0.03 0.03 0.04 0.04 0.05 0.06 0.06 0.05 0.06 0.08 0.06 0.07 0.08 0.09 0.11 0.10 0.11 0.11 0.12 0.12 0.13
0.00 0.00 0.01 0.01 0.00 0.00 0.01 0.01 0.01 0.01 0.01 0.01 0.01 0.02 0.02 0.02 0.03 0.04 0.04 0.04 0.04 0.04 0.04 0.04 0.05 0.05 0.06 0.05 0.05 0.04 0.05 0.07 0.07 0.08 0.10 0.10 0.10 0.10 0.11 0.12 0.12 0.12 0.12
0.00 0.00 0.00 0.00 0.00 0.00 0.01 0.02 0.01 0.01 0.01 0.01 0.01 0.02 0.02 0.02 0.03 0.03 0.03 0.04 0.04 0.04 0.04 0.05 0.06 0.06 0.06 0.06 0.06 0.05 0.06 0.06 0.07 0.07 0.09 0.09 0.09 0.09 0.09 0.11 0.10 0.10 0.11
0.00 0.00 0.01 0.01 0.01 0.01 0.03 0.03 0.02 0.01 0.01 0.01 0.01 0.01 0.02 0.03 0.04 0.04 0.04 0.03 0.03 0.03 0.04 0.04 0.05 0.05 0.06 0.06 0.05 0.05 0.06 0.07 0.07 0.08 0.10 0.11 0.12 0.11 0.09 0.10 0.09 0.08 0.08
0.00 0.00 0.03 0.06 0.06 0.05 0.04 0.04 0.02 0.01 0.01 0.01 0.01 0.01 0.02 0.02 0.03 0.03 0.03 0.03 0.03 0.03 0.03 0.04 0.04 0.06 0.07 0.06 0.07 0.07 0.08 0.07 0.07 0.08 0.11 0.13 0.13 0.13 0.11 0.09 0.07 0.05 0.06
0.01 0.02 0.02 0.03 0.06 0.08 0.08 0.06 0.04 0.02 0.01 0.01 0.01 0.02 0.01 0.02 0.02 0.02 0.02 0.02 0.02 0.02 0.03 0.04 0.05 0.06 0.06 0.06 0.07 0.09 0.08 0.08 0.07 0.07 0.07 0.08 0.08 0.09 0.10 0.10 0.09 0.09 0.09
0.01 0.02 0.02 0.03 0.03 0.04 0.07 0.07 0.06 0.03 0.01 0.01 0.01 0.01 0.01 0.02 0.02 0.02 0.02 0.02 0.02 0.02 0.03 0.05 0.05 0.07 0.07 0.06 0.07 0.07 0.05 0.05 0.05 0.06 0.06 0.07 0.08 0.07 0.07 0.07 0.08 0.10 0.12
0.02 0.02 0.02 0.02 0.02 0.03 0.04 0.04 0.02 0.02 0.02 0.01 0.01 0.01 0.01 0.02 0.01 0.01 0.02 0.02 0.02 0.03 0.04 0.04 0.04 0.04 0.03 0.03 0.03 0.03 0.04 0.05 0.06 0.06 0.06 0.07 0.07 0.07 0.05 0.04 0.04 0.04 0.05
0.02 0.02 0.02 0.02 0.02 0.02 0.02 0.02 0.02 0.02 0.01 0.01 0.01 0.01 0.02 0.02 0.02 0.01 0.02 0.02 0.02 0.03 0.03 0.03 0.03 0.02 0.03 0.03 0.02 0.02 0.03 0.05 0.06 0.07 0.07 0.05 0.04 0.05 0.04 0.04 0.04 0.04 0.04
0.02 0.02 0.01 0.02 0.02 0.01 0.01 0.01 0.01 0.01 0.01 0.01 0.01 0.01 0.01 0.01 0.01 0.02 0.02 0.02 0.02 0.03 0.03 0.03 0.02 0.02 0.03 0.04 0.03 0.05 0.06 0.07 0.06 0.05 0.04 0.04 0.04 0.04 0.05 0.06 0.05 0.04 0.03
0.02 0.02 0.02 0.01 0.01 0.01 0.01 0.01 0.01 0.01 0.01 0.02 0.03 0.01 0.01 0.01 0.02 0.03 0.03 0.03 0.03 0.03 0.03 0.03 0.03 0.03 0.04 0.04 0.05 0.05 0.05 0.04 0.03 0.03 0.03 0.04 0.05 0.05 0.05 0.06 0.07 0.05 0.04
0.02 0.01 0.00 0.00 0.01 0.01 0.01 0.01 0.01 0.01 0.01 0.01 0.01 0.01 0.01 0.03 0.03 0.04 0.03 0.03 0.04 0.04 0.04 0.04 0.04 0.03 0.03 0.02 0.02 0.01 0.01 0.02 0.02 0.03 0.02 0.03 0.06 0.05 0.05 0.05 0.06 0.06 0.06
0.02 0.01 0.01 0.01 0.01 0.01 0.01 0.01 0.01 0.01 0.01 0.02 0.02 0.01 0.01 0.03 0.04 0.04 0.04 0.04 0.05 0.05 0.03 0.03 0.03 0.04 0.05 0.06 0.04 0.02 0.01 0.02 0.02 0.03 0.02 0.02 0.04 0.04 0.04 0.04 0.05 0.05 0.04
0.04 0.02 0.01 0.01 0.01 0.01 0.01 0.01 0.00 0.01 0.01 0.02 0.02 0.02 0.02 0.02 0.02 0.04 0.05 0.05 0.05 0.04 0.04 0.04 0.03 0.04 0.03 0.04 0.05 0.04 0.02 0.02 0.03 0.03 0.03 0.02 0.03 0.03 0.03 0.02 0.02 0.02 0.03
0.05 0.04 0.01 0.00 0.00 0.01 0.00 0.01 0.00 0.00 0.01 0.02 0.02 0.01 0.01 0.02 0.02 0.03 0.04 0.04 0.05 0.04 0.04 0.04 0.03 0.03 0.03 0.03 0.03 0.04 0.03 0.03 0.03 0.03 0.02 0.02 0.02 0.02 0.02 0.01 0.01 0.01 0.01
0.02 0.01 0.01 0.00 0.01 0.01 0.01 0.01 0.01 0.01 0.01 0.01 0.02 0.02 0.01 0.02 0.02 0.03 0.04 0.05 0.05 0.05 0.04 0.03 0.03 0.04 0.03 0.02 0.02 0.02 0.02 0.02 0.03 0.02 0.02 0.02 0.02 0.02 0.02 0.02 0.02 0.02 0.02
0.03 0.02 0.01 0.01 0.02 0.01 0.01 0.01 0.01 0.01 0.01 0.02 0.02 0.02 0.02 0.02 0.03 0.04 0.04 0.05 0.06 0.07 0.05 0.04 0.04 0.04 0.04 0.04 0.03 0.02 0.01 0.01 0.01 0.01 0.02 0.02 0.02 0.02 0.03 0.03 0.04 0.04 0.04
0.04 0.04 0.03 0.03 0.03 0.02 0.02 0.02 0.01 0.01 0.02 0.02 0.02 0.02 0.02 0.02 0.02 0.02 0.03 0.04 0.04 0.05 0.05 0.05 0.05 0.05 0.05 0.05 0.05 0.04 0.04 0.03 0.03 0.03 0.03 0.04 0.05 0.04 0.03 0.03 0.03 0.04 0.02
MSLP
1013.12 1013.47 1013.75 1013.97 1014.14 1014.28 1014.43 1014.62 1014.84 1015.12 1015.42 1015.72 1016.00 1016.23 1016.39 1016.48 1016.51 1016.47 1016.41 1016.32 1016.23 1016.14 1016.06 1015.98 1015.91 1015.86 1015.84 1015.88 1015.99 1016.20 1016.53 1016.99 1017.57 1018.24 1018.94 1019.62 1020.20 1020.62 1020.82 1020.79 1020.53 1020.08 1019.49
1013.23 1013.76 1014.19 1014.50 1014.69 1014.80 1014.89 1014.98 1015.14 1015.37 1015.66 1015.99 1016.31 1016.59 1016.78 1016.87 1016.86 1016.77 1016.63 1016.48 1016.35 1016.25 1016.19 1016.16 1016.16 1016.17 1016.19 1016.23 1016.31 1016.46 1016.71 1017.09 1017.60 1018.23 1018.93 1019.66 1020.33 1020.87 1021.21 1021.32 1021.20 1020.87 1020.38
1013.23 1013.98 1014.58 1014.99 1015.22 1015.32 1015.34 1015.36 1015.43 1015.61 1015.87 1016.20 1016.55 1016.86 1017.09 1017.19 1017.17 1017.05 1016.87 1016.68 1016.52 1016.41 1016.38 1016.39 1016.45 1016.50 1016.55 1016.58 1016.62 1016.69 1016.85 1017.12 1017.54 1018.11 1018.80 1019.55 1020.29 1020.94 1021.42 1021.68 1021.71 1021.52 1021.17
1013.11 1014.06 1014.83 1015.37 1015.67 1015.77 1015.74 1015.69 1015.69 1015.80 1016.02 1016.35 1016.71 1017.06 1017.31 1017.45 1017.44 1017.33 1017.14 1016.93 1016.76 1016.67 1016.65 1016.70 1016.79 1016.87 1016.93 1016.94 1016.93 1016.92 1016.98 1017.15 1017.48 1017.98 1018.63 1019.38 1020.16 1020.89 1021.47 1021.87 1022.05 1022.02 1021.81
1012.86 1014.00 1014.94 1015.60 1015.98 1016.10 1016.06 1015.95 1015.89 1015.93 1016.12 1016.43 1016.81 1017.18 1017.49 1017.67 1017.70 1017.61 1017.44 1017.25 1017.10 1017.01 1017.01 1017.07 1017.18 1017.27 1017.32 1017.31 1017.25 1017.18 1017.15 1017.23 1017.47 1017.89 1018.49 1019.21 1020.00 1020.76 1021.42 1021.92 1022.21 1022.32 1022.26
1012.53 1013.81 1014.89 1015.68 1016.14 1016.30 1016.26 1016.13 1016.03 1016.03 1016.19 1016.49 1016.87 1017.28 1017.63 1017.87 1017.96 1017.92 1017.80 1017.64 1017.50 1017.43 1017.43 1017.50 1017.60 1017.69 1017.72 1017.69 1017.59 1017.47 1017.37 1017.38 1017.54 1017.89 1018.41 1019.09 1019.84 1020.60 1021.29 1021.83 1022.21 1022.42 1022.49
1012.17 1013.55 1014.73 1015.62 1016.16 1016.38 1016.38 1016.25 1016.14 1016.12 1016.26 1016.55 1016.95 1017.39 1017.79 1018.08 1018.24 1018.26 1018.18 1018.06 1017.94 1017.88 1017.88 1017.94 1018.03 1018.10 1018.11 1018.06 1017.93 1017.78 1017.64 1017.60 1017.70 1017.97 1018.42 1019.02 1019.72 1020.43 1021.10 1021.65 1022.07 1022.35 1022.52
1011.85 1013.26 1014.51 1015.46 1016.08 1016.37 1016.42 1016.34 1016.24 1016.24 1016.38 1016.67 1017.08 1017.54 1017.97 1018.32 1018.53 1018.60 1018.58 1018.49 1018.39 1018.33 1018.32 1018.36 1018.42 1018.47 1018.47 1018.40 1018.27 1018.10 1017.95 1017.88 1017.94 1018.15 1018.52 1019.04 1019.64 1020.28 1020.89 1021.41 1021.84 1022.16 1022.39
1011.64 1013.02 1014.27 1015.27 1015.95 1016.32 1016.44 1016.42 1016.37 1016.40 1016.55 1016.86 1017.27 1017.75 1018.20 1018.58 1018.83 1018.95 1018.95 1018.89 1018.81 1018.74 1018.71 1018.73 1018.77 1018.79 1018.79 1018.72 1018.60 1018.44 1018.30 1018.22 1018.25 1018.41 1018.71 1019.13 1019.63 1020.18 1020.70 1021.17 1021.57 1021.90 1022.18
1011.54 1012.86 1014.08 1015.09 1015.81 1016.25 1016.45 1016.51 1016.53 1016.61 1016.80 1017.11 1017.53 1018.00 1018.46 1018.85 1019.12 1019.26 1019.29 1019.24 1019.17 1019.09 1019.05 1019.05 1019.07 1019.08 1019.08 1019.03 1018.93 1018.81 1018.69 1018.62 1018.63 1018.75 1018.98 1019.31 1019.71 1020.15 1020.58 1020.98 1021.34 1021.65 1021.95
1011.57 1012.79 1013.95 1014.93 1015.68 1016.18 1016.47 1016.62 1016.72 1016.86 1017.08 1017.41 1017.83 1018.29 1018.73 1019.11 1019.38 1019.53 1019.57 1019.54 1019.47 1019.39 1019.35 1019.33 1019.35 1019.37 1019.38 1019.36 1019.30 1019.22 1019.14 1019.09 1019.10 1019.19 1019.36 1019.60 1019.91 1020.24 1020.57 1020.90 1021.20 1021.50 1021.79
1011.67 1012.78 1013.85 1014.80 1015.55 1016.10 1016.46 1016.70 1016.89 1017.09 1017.36 1017.70 1018.11 1018.55 1018.97 1019.33 1019.59 1019.75 1019.80 1019.79 1019.73 1019.67 1019.63 1019.63 1019.65 1019.69 1019.73 1019.75 1019.74 1019.71 1019.66 1019.64 1019.65 1019.71 1019.83 1020.00 1020.21 1020.45 1020.70 1020.95 1021.20 1021.47 1021.75
1011.77 1012.77 1013.76 1014.65 1015.40 1015.99 1016.42 1016.74 1017.00 1017.27 1017.58 1017.94 1018.34 1018.77 1019.17 1019.51 1019.76 1019.92 1019.99 1020.00 1019.98 1019.95 1019.94 1019.96 1020.01 1020.08 1020.15 1020.21 1020.25 1020.26 1020.25 1020.25 1020.26 1020.30 1020.37 1020.48 1020.62 1020.78 1020.96 1021.15 1021.35 1021.57 1021.83
1011.79 1012.70 1013.61 1014.46 1015.20 1015.81 1016.30 1016.69 1017.03 1017.36 1017.71 1018.09 1018.50 1018.90 1019.29 1019.62 1019.88 1020.06 1020.16 1020.21 1020.23 1020.25 1020.29 1020.35 1020.44 1020.54 1020.65 1020.74 1020.81 1020.85 1020.88 1020.89 1020.90 1020.91 1020.95 1021.01 1021.09 1021.19 1021.31 1021.45 1021.60 1021.79 1022.01
1011.67 1012.51 1013.37 1014.19 1014.93 1015.56 1016.10 1016.56 1016.96 1017.35 1017.74 1018.14 1018.56 1018.96 1019.35 1019.69 1019.96 1020.17 1020.32 1020.43 1020.51 1020.58 1020.67 1020.77 1020.90 1021.03 1021.16 1021.28 1021.37 1021.44 1021.48 1021.50 1021.50 1021.51 1021.52 1021.54 1021.58 1021.64 1021.72 1021.81 1021.94 1022.08 1022.26
1011.37 1012.19 1013.03 1013.83 1014.58 1015.25 1015.83 1016.35 1016.82 1017.26 1017.69 1018.11 1018.54 1018.96 1019.35 1019.71 1020.02 1020.27 1020.47 1020.63 1020.78 1020.91 1021.04 1021.19 1021.34 1021.49 1021.64 1021.77 1021.87 1021.94 1021.99 1022.01 1022.01 1022.01 1022.01 1022.01 1022.03 1022.07 1022.12 1022.19 1022.29 1022.41 1022.54
1010.91 1011.74 1012.59 1013.41 1014.19 1014.89 1015.53 1016.10 1016.62 1017.11 1017.58 1018.04 1018.49 1018.92 1019.33 1019.71 1020.05 1020.35 1020.60 1020.83 1021.02 1021.20 1021.37 1021.54 1021.70 1021.86 1022.00 1022.13 1022.23 1022.30 1022.34 1022.37 1022.38 1022.38 1022.38 1022.39 1022.41 1022.44 1022.49 1022.55 1022.63 1022.72 1022.82
1010.33 1011.21 1012.10 1012.97 1013.78 1014.54 1015.23 1015.85 1016.43 1016.96 1017.46 1017.95 1018.42 1018.87 1019.30 1019.71 1020.08 1020.41 1020.70 1020.96 1021.19 1021.39 1021.58 1021.75 1021.91 1022.06 1022.19 1022.31 1022.40 1022.47 1022.52 1022.56 1022.58 1022.61 1022.63 1022.66 1022.70 1022.74 1022.80 1022.86 1022.92 1022.99 1023.07
1009.71 1010.67 1011.62 1012.54 1013.42 1014.23 1014.97 1015.65 1016.26 1016.83 1017.37 1017.87 1018.36 1018.82 1019.27 1019.68 1020.07 1020.42 1020.73 1021.01 1021.25 1021.46 1021.64 1021.81 1021.95 1022.08 1022.19 1022.30 1022.39 1022.46 1022.53 1022.59 1022.65 1022.71 1022.77 1022.83 1022.90 1022.97 1023.04 1023.11 1023.17 1023.22 1023.27
1009.15 1010.18 1011.20 1012.18 1013.11 1013.98 1014.77 1015.49 1016.15 1016.74 1017.30 1017.82 1018.31 1018.78 1019.22 1019.63 1020.02 1020.36 1020.67 1020.95 1021.18 1021.38 1021.55 1021.69 1021.82 1021.93 1022.03 1022.14 1022.23 1022.33 1022.43 1022.52 1022.62 1022.73 1022.83 1022.93 1023.03 1023.13 1023.22 1023.29 1023.35 1023.40 1023.42
1008.72 1009.80 1010.87 1011.90 1012.88 1013.79 1014.62 1015.37 1016.05 1016.67 1017.23 1017.75 1018.24 1018.70 1019.13 1019.53 1019.89 1020.22 1020.51 1020.77 1020.98 1021.16 1021.31 1021.43 1021.55 1021.66 1021.77 1021.89 1022.01 1022.14 1022.28 1022.42 1022.57 1022.72 1022.86 1023.00 1023.12 1023.24 1023.33 1023.41 1023.46 1023.49 1023.50
1008.47 1009.57 1010.66 1011.71 1012.71 1013.63 1014.48 1015.25 1015.94 1016.56 1017.13 1017.64 1018.12 1018.56 1018.97 1019.34 1019.68 1019.98 1020.25 1020.47 1020.66 1020.83 1020.96 1021.09 1021.21 1021.34 1021.47 1021.62 1021.78 1021.95 1022.14 1022.33 1022.52 1022.70 1022.87 1023.03 1023.16 1023.27 1023.36 1023.42 1023.46 1023.47 1023.46
1008.42 1009.48 1010.55 1011.58 1012.56 1013.47 1014.32 1015.08 1015.77 1016.39 1016.94 1017.45 1017.91 1018.32 1018.71 1019.05 1019.36 1019.64 1019.87 1020.08 1020.26 1020.42 1020.56 1020.70 1020.85 1021.01 1021.19 1021.38 1021.59 1021.82 1022.05 1022.27 1022.49 1022.69 1022.86 1023.00 1023.12 1023.21 1023.26 1023.30 1023.31 1023.30 1023.27
1008.54 1009.52 1010.51 1011.47 1012.40 1013.27 1014.09 1014.83 1015.50 1016.10 1016.64 1017.13 1017.58 1017.97 1018.34 1018.66 1018.94 1019.20 1019.42 1019.62 1019.80 1019.97 1020.13 1020.31 1020.50 1020.71 1020.95 1021.20 1021.46 1021.73 1021.99 1022.23 1022.44 1022.63 1022.77 1022.88 1022.95 1022.99 1023.00 1022.99 1022.97 1022.94 1022.90
1008.79 1009.64 1010.51 1011.38 1012.22 1013.02 1013.78 1014.48 1015.12 1015.70 1016.23 1016.70 1017.13 1017.51 1017.86 1018.16 1018.43 1018.68 1018.90 1019.10 1019.29 1019.49 1019.69 1019.92 1020.17 1020.44 1020.73 1021.03 1021.34 1021.63 1021.90 1022.14 1022.33 1022.47 1022.56 1022.60 1022.61 1022.58 1022.54 1022.48 1022.43 1022.38 1022.34
1009.12 1009.82 1010.54 1011.28 1012.01 1012.72 1013.40 1014.05 1014.65 1015.21 1015.71 1016.17 1016.59 1016.96 1017.29 1017.59 1017.85 1018.09 1018.32 1018.53 1018.75 1018.98 1019.23 1019.51 1019.81 1020.14 1020.48 1020.82 1021.15 1021.46 1021.72 1021.92 1022.07 1022.14 1022.17 1022.14 1022.07 1021.97 1021.87 1021.78 1021.70 1021.65 1021.62
Thickness
5821 5820 5817 5815 5810 5806 5801 5797 5794 5792 5790 5787 5784 5781 5779 5779 5778 5777 5774 5772 5770 5769 5767 5766 5764 5763 5761 5759 5758 5756 5754 5752 5753 5749 5747 5749 5751 5750 5751 5750 5748 5748 5746
5820 5818 5816 5815 5811 5806 5801 5798 5794 5793 5791 5788 5786 5784 5782 5781 5780 5779 5776 5773 5771 5769 5768 5765 5763 5762 5760 5758 5757 5756 5752 5752 5753 5747 5741 5738 5740 5744 5748 5747 5746 5747 5746
5823 5819 5817 5815 5812 5807 5803 5801 5796 5795 5793 5791 5789 5787 5783 5781 5779 5777 5775 5774 5772 5770 5768 5766 5764 5762 5760 5757 5757 5755 5753 5749 5751 5751 5744 5737 5732 5736 5741 5743 5744 5743 5743
5830 5825 5821 5817 5814 5811 5809 5804 5800 5797 5795 5793 5790 5785 5780 5777 5777 5777 5776 5774 5772 5770 5768 5766 5764 5762 5760 5758 5757 5757 5755 5751 5748 5750 5750 5748 5744 5735 5731 5736 5739 5739 5738
5836 5831 5827 5822 5820 5817 5813 5808 5803 5800 5797 5794 5791 5787 5783 5781 5780 5779 5776 5774 5772 5770 5769 5766 5764 5761 5759 5758 5757 5756 5754 5753 5750 5748 5747 5746 5745 5743 5734 5728 5731 5733 5735
5842 5837 5833 5828 5823 5821 5817 5812 5805 5801 5798 5795 5792 5788 5784 5782 5779 5777 5775 5773 5772 5771 5769 5767 5763 5761 5759 5757 5756 5755 5753 5752 5751 5749 5747 5744 5741 5739 5736 5730 5727 5727 5729
5844 5838 5833 5828 5824 5821 5818 5814 5807 5801 5799 5796 5793 5790 5787 5784 5780 5778 5776 5773 5772 5770 5768 5767 5763 5761 5758 5756 5755 5753 5751 5750 5749 5747 5746 5746 5744 5743 5739 5732 5727 5725 5725
5846 5841 5837 5832 5827 5823 5819 5815 5808 5803 5800 5797 5793 5791 5788 5785 5783 5780 5778 5774 5772 5771 5769 5766 5763 5760 5758 5755 5753 5751 5750 5749 5747 5746 5745 5744 5743 5742 5738 5733 5727 5720 5719
5846 5842 5839 5834 5830 5825 5821 5817 5810 5805 5802 5799 5795 5791 5789 5786 5783 5781 5779 5776 5774 5772 5769 5765 5762 5759 5756 5754 5751 5749 5747 5746 5744 5742 5742 5741 5740 5739 5738 5735 5731 5722 5713
5845 5842 5838 5835 5832 5828 5823 5819 5813 5807 5804 5800 5797 5793 5790 5787 5783 5781 5778 5775 5773 5770 5767 5764 5760 5757 5755 5752 5750 5747 5745 5743 5741 5739 5737 5736 5736 5736 5735 5733 5731 5727 5719
5843 5839 5837 5834 5831 5828 5823 5818 5813 5808 5803 5800 5796 5793 5790 5787 5783 5779 5777 5774 5771 5768 5764 5761 5758 5755 5752 5750 5747 5744 5742 5739 5737 5736 5734 5732 5732 5731 5730 5730 5727 5724 5719
5843 5838 5835 5831 5828 5824 5819 5815 5812 5807 5803 5799 5796 5792 5788 5785 5781 5777 5775 5772 5769 5766 5762 5759 5755 5752 5749 5746 5743 5741 5738 5735 5732 5730 5729 5728 5727 5726 5724 5723 5721 5719 5716
5837 5834 5830 5826 5823 5819 5816 5812 5809 5805 5802 5798 5793 5789 5785 5781 5777 5775 5772 5770 5766 5763 5759 5756 5752 5748 5746 5743 5740 5738 5735 5732 5729 5727 5724 5723 5721 5719 5718 5716 5715 5713 5712
5830 5826 5821 5818 5816 5813 5811 5807 5805 5803 5800 5795 5790 5785 5781 5778 5775 5772 5769 5766 5763 5759 5755 5752 5748 5745 5742 5740 5737 5734 5730 5728 5725 5723 5720 5718 5715 5713 5712 5711 5708 5706 5703
5820 5817 5814 5811 5809 5806 5804 5802 5799 5797 5795 5790 5784 5781 5778 5774 5771 5768 5765 5762 5759 5755 5751 5747 5744 5741 5738 5734 5731 5729 5726 5723 5720 5717 5715 5712 5710 5708 5706 5705 5701 5699 5696
5813 5812 5809 5806 5803 5801 5799 5797 5794 5792 5789 5784 5779 5777 5773 5769 5766 5763 5760 5756 5753 5750 5746 5742 5738 5735 5732 5728 5726 5724 5722 5718 5714 5711 5709 5707 5704 5702 5699 5697 5696 5694 5690
5809 5806 5804 5802 5800 5799 5796 5792 5790 5787 5783 5779 5775 5771 5768 5764 5761 5759 5755 5751 5747 5744 5740 5737 5732 5728 5724 5722 5720 5718 5716 5713 5709 5706 5703 5702 5699 5696 5694 5691 5688 5686 5684
5805 5802 5800 5797 5797 5795 5793 5790 5786 5781 5777 5772 5769 5766 5763 5759 5755 5752 5748 5745 5742 5738 5734 5731 5727 5723 5718 5715 5713 5711 5710 5707 5704 5701 5698 5694 5692 5690 5687 5685 5681 5678 5675
5801 5798 5797 5794 5791 5789 5787 5783 5778 5774 5770 5765 5761 5758 5757 5753 5749 5745 5742 5739 5736 5732 5729 5725 5721 5717 5712 5708 5707 5704 5704 5701 5698 5695 5692 5689 5685 5682 5680 5677 5674 5670 5668
5796 5793 5792 5788 5783 5782 5780 5774 5770 5766 5762 5760 5756 5754 5751 5747 5742 5739 5736 5734 5730 5726 5723 5719 5716 5712 5707 5703 5701 5699 5698 5695 5692 5688 5685 5682 5679 5675 5673 5670 5667 5663 5661
5787 5786 5782 5778 5775 5774 5771 5765 5761 5758 5757 5755 5751 5747 5744 5740 5737 5733 5730 5727 5724 5720 5717 5713 5710 5706 5702 5698 5695 5692 5691 5688 5685 5681 5678 5674 5671 5668 5665 5663 5660 5657 5655
5777 5775 5770 5767 5766 5765 5761 5756 5752 5752 5750 5747 5743 5740 5737 5734 5731 5726 5722 5719 5716 5712 5709 5706 5703 5700 5696 5692 5688 5686 5683 5681 5678 5674 5671 5667 5663 5660 5658 5655 5653 5651 5649
5766 5764 5760 5757 5756 5755 5752 5747 5745 5744 5742 5738 5735 5732 5729 5726 5724 5719 5715 5711 5709 5706 5703 5700 5697 5694 5690 5685 5681 5678 5676 5673 5670 5667 5663 5659 5656 5653 5651 5648 5646 5643 5641
5757 5755 5751 5747 5745 5745 5743 5740 5739 5737 5734 5730 5727 5724 5721 5718 5715 5711 5709 5705 5702 5699 5696 5694 5691 5688 5683 5678 5674 5671 5668 5665 5663 5659 5655 5651 5648 5645 5642 5640 5638 5636 5634
5748 5745 5741 5738 5736 5736 5734 5733 5731 5729 5725 5722 5720 5717 5714 5711 5706 5702 5698 5696 5692 5690 5687 5686 5683 5680 5674 5669 5665 5663 5661 5658 5655 5651 5649 5645 5641 5638 5636 5633 5631 5629 5627
5738 5734 5732 5730 5728 5727 5725 5724 5723 5721 5718 5714 5712 5710 5708 5704 5700 5696 5690 5685 5684 5680 5678 5676 5674 5670 5666 5661 5658 5655 5652 5649 5647 5644 5642 5639 5635 5633 5630 5627 5624 5622 5619